www.pogodaiklimat.ru

Погода и климат >> Архив погоды >> Россия >> Чувашия >> Канаш


ПОГОДА в Канаше

  • Прогноз погоды в Канаше
  • Монитор погоды в Канаше

АРХИВ ПОГОДЫ в Канаше

Время (UTC), дата Ветер
(напр.,м/с)
 
Видим.   Явления Облачность Т
(С)
Тd
(С)
f
(%)
Тe
(С)
Тes
(С)
Комфортность P
(гПа)
Po
(гПа)
Тmin
(С)
Tmax
(С)
R
(мм)
R24
(мм)
S
(см)
06 16.08 Ю 3-4
{6}
20 км 9/0
[Ci fib]
+24.7 +15.9 58 +28 +33 душно 1012.1 991.2
09 16.08 СЗ 6-10
{11}
10 км гроза, ливневой дождь 10/10 600 м
[Cb calv]
+18.3 +16.8 91 +18 +18 1015.1 993.6
12 16.08 В 3-5
{10}
20 км {гроза, ливн. осадки} 10/3 600 м
[Cb calv As op]
+20.8 +16.2 75 +25 +25 комфорт 1014.8 993.6
15 16.08 ЮВ 3-5
{7}
20 км 10/5 600 м
[Cb calv As op]
+19.1 +15.6 80 +21 +21 комфорт 1014.0 992.6 +28.2 17
18 16.08 СВ 1-2
{5}
10 км 10/10 600 м
[Cb calv]
+18.6 +15.1 80 +21 +21 комфорт 1014.4 993.0
21 16.08 С 1-3
{4}
10 км 9/9 600 м
[Sc]
+17.3 +14.5 84 +18 +18 1014.1 992.6
00 17.08 СВ 4-5
{6}
10 км 9/5 600 м
[Sc Ci fib]
+17.6 +15.1 85 +17 +17 1014.0 992.5
03 17.08 СЗ 2-3
{5}
20 км в посл. час ливневой дождь 10/10 600 м
[Cb calv]
+17.5 +15.5 88 +18 +18 1013.6 992.2 +17.0 0.0
06 17.08 З 2-4
{9}
20 км в посл. час ливневой дождь 10/10 600 м
[Cb calv]
+18.6 +17.3 92 +20 +20 1014.5 993.1
09 17.08 В 1-3
{4}
20 км 10/10 600 м
[Cb calv]
+20.7 +17.3 81 +25 +25 комфорт 1014.6 993.4
12 17.08 ЮВ 2-3
{5}
20 км 10/10 600 м
[Cb calv]
+21.5 +17.3 77 +26 +26 душно 1014.7 993.5
15 17.08 В 1-3
{4}
20 км в посл. час ливневой дождь 10/10 600 м
[Sc]
+20.5 +17.9 85 +25 +25 комфорт 1015.1 993.9 +22.4 6
18 17.08 В 1-3
{4}
10 км {ливн. осадки} 10/10 600 м
[Sc]
+19.6 +17.1 85 +23 +23 комфорт 1015.2 993.9
21 17.08 ЮВ 3-4
{6}
10 км 10/0
[As op]
+18.7 +16.7 88 +20 +20 1015.2 993.8
00 18.08 В 3-5
{8}
10 км 10/10 600 м
[Sc]
+19.0 +16.4 85 +21 +21 комфорт 1014.6 993.2
03 18.08 В 5-8
{9}
20 км 10/10 600 м
[Sc]
+19.2 +16.4 84 +21 +21 комфорт 1013.3 992.0 +18.6
06 18.08 ЮВ 5-6
{9}
20 км {ливн. осадки} 9/9 600 м
[Cb calv]
+21.0 +16.4 75 +25 +25 комфорт 1013.2 992.1
09 18.08 Ю 4-7
{8}
20 км 8/8 600 м
[Sc]
+26.9 +12.7 41 +28 +30 жарко 1012.9 992.2
12 18.08 ЮВ 4-6
{10}
20 км 9/6 600 м
[Cb calv Ac trans Ci fib]
+27.0 +12.2 40 +28 +29 жарко 1013.3 995.2
15 18.08 ЮВ 2-3
{6}
20 км 9/5 600 м
[Sc Ac trans Ci fib]
+25.4 +15.0 53 +28 +28 жарко 1013.9 992.9 +28.6
18 18.08 ЮВ 4-5
{5}
10 км 9/3 600 м
[Sc Ac trans Ci fib]
+22.0 +13.9 60 +25 +25 комфорт 1015.3 994.1
21 18.08 ЮВ 4-6
{7}
10 км 10/0
[Cs]
+20.3 +12.1 59 +22 +22 комфорт 1015.8 994.5
00 19.08 В 3-4
{7}
10 км 9/8 600 м
[Cb calv Ac trans]
+18.9 +12.8 68 +20 +20 1016.5 995.1
03 19.08 Ю 2-3
{7}
20 км в посл. час ливневой дождь 10/10 600 м
[Cb calv]
+18.1 +13.3 74 +19 +19 1017.5 996.0 +18.0 0.0
06 19.08 Ю 1-2
{6}
20 км {ливн. осадки} 9/9 600 м
[Sc]
+21.2 +16.0 72 +25 +25 комфорт 1017.0 995.8
09 19.08 ЮВ 4-6
{8}
20 км 9/5 600 м
[Cb calv Ac trans]
+23.2 +15.0 60 +27 +29 душно 1017.0 995.9
12 19.08 Ю 2-5
{7}
20 км 9/8 600 м
[Cb calv Ac trans]
+24.6 +15.5 57 +28 +29 душно 1016.7 995.7
15 19.08 штиль 0
{5}
20 км 10/10 600 м
[Cb calv]
+22.8 +16.9 69 +28 +28 душно 1016.9 995.8 +25.1 0.0
18 19.08 ЮЗ 2-2
{3}
10 км 9/9 600 м
[Sc]
+21.2 +16.4 74 +25 +25 комфорт 1017.9 996.7
21 19.08 З 2-2
{3}
10 км ясно +18.5 +16.2 86 +20 +20 1018.3 996.9
00 20.08 З 1-2
{3}
10 км ясно +15.7 +14.1 90 +16 +16 1019.3 997.5
03 20.08 З 2-2
{4}
4000 м дымка ясно +15.2 +13.9 92 +15 +16 1020.3 998.5 +14.4
06 20.08 З 3-4
{5}
20 км 3/3 600 м
[Cu hum]
+20.5 +15.7 74 +24 +28 комфорт 1020.4 999.0
09 20.08 СЗ 3-5
{6}
20 км 9/9 600 м
[Cb calv]
+22.3 +16.2 68 +26 +27 жарко 1020.3 999.0
12 20.08 С 3-5
{6}
20 км 8/8 300 м
[Cb calv]
+24.1 +15.1 57 +27 +28 жарко 1019.7 998.6
15 20.08 СЗ 2-3
{5}
20 км 3/3 600 м
[Cu hum]
+23.6 +14.1 55 +26 +26 жарко 1020.0 998.8 +25.4
18 20.08 штиль 0
{3}
10 км 1/0
[Ci fib]
+18.9 +14.2 74 +20 +20 1020.7 999.2
21 20.08 штиль 0
{1}
10 км ясно +16.7 +13.5 81 +17 +17 1021.5 999.8
00 21.08 штиль 0
{1}
10 км ясно +15.3 +13.7 90 +15 +15 1021.6 999.8
03 21.08 З 1-2
{2}
2000 м дымка 3/0
[Ci fib]
+14.7 +13.4 92 +15 +16 1022.5 1000.6 +14.2
06 21.08 З 2-2
{3}
20 км ясно +20.7 +15.7 73 +24 +32 комфорт 1022.7 1001.3
09 21.08 С 3-5
{6}
20 км 9/9 600 м
[Cu hum]
+24.6 +14.3 53 +27 +28 жарко 1022.2 1001.1
12 21.08 С 3-5
{6}
20 км 9/6 600 м
[Cu hum Ci fib]
+25.6 +13.1 46 +28 +29 жарко 1021.8 1000.7
15 21.08 С 2-4
{6}
20 км 9/3 600 м
[Cu hum Ci fib]
+25.0 +15.4 55 +28 +28 жарко 1021.9 1000.8 +26.5
18 21.08 СВ 1-2
{4}
10 км 3/0
[Ci fib]
+21.7 +14.2 62 +25 +25 комфорт 1022.1 1000.8
21 21.08 Ю 1-2
{3}
10 км 4/0
[Ci fib]
+18.0 +14.9 82 +19 +19 1022.4 1000.8
00 22.08 Ю 1-2
{3}
10 км ясно +17.6 +14.7 83 +19 +19 1022.5 1000.9
03 22.08 Ю 1-2
{3}
20 км 9/0
[Ac trans Ci fib]
+18.0 +15.2 84 +19 +20 1022.6 1001.0 +16.7
06 22.08 З 2-3
{3}
20 км 3/0
[Ac trans]
+22.8 +16.6 68 +27 +33 душно 1022.0 1000.8
09 22.08 З 3-5
{6}
20 км 8/8 600 м
[Cu hum]
+26.2 +16.1 54 +30 +31 душно 1021.0 1000.0
12 22.08 З 3-4
{7}
20 км 8/8 600 м
[Cu hum]
+28.3 +14.2 42 +30 +31 жарко 1020.0 999.1
15 22.08 Ю 3-4
{5}
20 км 3/1 600 м
[Cu hum Ci fib]
+27.1 +14.7 47 +30 +30 душно 1018.6 997.7 +29.0
18 22.08 Ю 3-4
{5}
10 км 9/9 600 м
[Cb calv]
+24.6 +14.1 52 +27 +27 жарко 1019.1 998.0
21 22.08 Ю 3-4
{5}
10 км {ливн. осадки} 3/3 600 м
[Sc]
+22.5 +14.8 62 +26 +26 жарко 1019.0 997.7
00 23.08 СЗ 3-5
{7}
10 км {ливн. осадки} 10/10 600 м
[Cb calv]
+18.9 +16.0 83 +20 +20 1020.7 999.2
03 23.08 СЗ 4-6
{9}
20 км {ливн. осадки} 9/8 600 м
[Cb calv Ci fib]
+15.3 +13.3 88 +14 +14 1022.8 1001.0 +15.1 0.0

 

Местоположение метеостанции Канаш (Чувашия, Россия): широта 55.52 долгота 47.47 высота над уровнем моря 183 м.

В архиве по умолчанию представлена погода в Канаше за последнюю неделю. Архивные данные за месяц целиком и за предыдущие месяцы, начиная с января 2011 года, Вы можете получить, выбрав интересующий диапазон дат из раскрывающегося списка и нажав кнопку "Ввод!".


*Определитесь, кто Вы:
робот инопланетянин человек

Внимание! Время в таблицах - всемирное. Для получения местного времени необходимо прибавить поправку, которая равна 3 ч.

Смотрите также архив погоды в соседних городах и на ближайших метеорологических станциях:

Погода в Больших Кайбицах (Татарстан, Россия) (47 км)
Погода в Батырево (Чувашия, Россия) (51 км)
Погода в Чебоксарах (Чувашия, Россия) (63 км)
Погода в Вязовых (Татарстан, Россия) (74 км)
Погода в Порецком (Чувашия, Россия) (81 км)
Погода в Дрожжаном (Татарстан, Россия) (89 км)
Погода в Алатыре (Чувашия, Россия) (96 км)
Погода в Тетюшах (Татарстан, Россия) (105 км)
Погода в Козьмодемьянске (Марий-Эл, Россия) (106 км)
Погода в Казани (Татарстан, Россия) (111 км)

Пояснения к столбцам:

Ветер - указаны скорость ветра в м/с - средняя за 10 мин, порывы в срок и между сроками (в фигурных скобках) и направление, откуда дует ветер: С - северный, СВ - северо-восточный, В - восточный, ЮВ - юго-восточный, Ю - южный, ЮЗ - юго-западный, З - западный, СЗ - северо-западный.
Видимость - горизонтальная дальность видимости в метрах или километрах. При видимости от 1 до 10 км при отсутствии осадков обычно наблюдается дымка, при ухудшении видимости до 1 км и менее - туман. В сухую погоду видимость может ухудшаться дымом, пылью или мглою.
Явления - указаны атмосферные явления, наблюдавшиеся в срок или в последний час перед сроком; фигурными скобками обозначены явления, наблюдавшиеся между сроками (за 1-3 часа до срока); квадратными скобками обозначены град или гололедные отложения с указанием их диаметра в мм.
Облачность - указаны через наклонную черту общая и нижняя облачность в баллах и высота нижней границы облаков в метрах; квадратными скобками обозначены формы облаков: Ci - перистые, Cs - перисто-слоистые, Cc - перисто-кучевые, Ac - высококучевые, As - высокослоистые, Sc - слоисто-кучевые, Ns - слоисто-дождевые, Cu - кучевые, Cb - кучево-дождевые. Подробнее классификацию облаков см. в Атласе облаков (PDF).
T - Температура воздуха - температура, измеренная на высоте 2 м над землей.
Td - Температура точки росы - температура, при понижении до которой содержащийся в воздухе водяной пар достигнет насыщения.
f - Относительная влажность воздуха - влажноcть воздуха, измеренная на высоте 2 м над землей.
Te - Эффективная температура - температура, которую ощущает одетый по сезону человек в тени. Характеристика душности погоды. При расчете учитывается влияние влажности воздуха и скорости ветра на теплоощущения человека.
Tes - Эффективная температура на солнце - температура, которую ощущает человек, с поправкой на солнечный нагрев. Характеристика знойности погоды. Зависит от высоты солнца над горизонтом, облачности и скорости ветра. Ночью, в пасмурную погоду, а также при ветре 12 м/с и более поправка равна нулю.
P - Атмосферное давление - приведенное к уровню моря атмосферное давление.
Po - Атмосферное давление - измеренное на уровне метеостанции атмосферное давление.
Tmin - Минимальная температура - минимум температуры воздуха на высоте 2 м над землей.
Tmax - Максимальная температура - максимум температуры воздуха на высоте 2 м над землей.
R - Количество осадков - Количество выпавших осадков за период времени, мм. При наведении курсора мыши на число - период времени, за который выпало указанное количество осадков.
R24 - Количество осадков - Количество выпавших осадков за 24 часа, мм.
S - Снежный покров - Высота снежного покрова, см. При наведении курсора мыши на число - состояние снежного покрова и степень покрытия местности в баллах.